Flag for U.S.A. Weather past 2 weeks in Everett, Washington, U.S.A.

Now
56 °F

Light rain. Overcast.


Feels Like: 53 °F
Forecast: 49 / 55 °F
Wind: 10 mph from Southeast

Location: Snohomish County Airport

Current Time: Oct 25, 2014 at 5:34:14 PM

Latest Report: Oct 25, 2014 at 4:53 PM


Visibility: 10 mi

Pressure: 29.28 "Hg

Humidity: 87%

Dew point: 52 °F

Location of EverettLocation

Historic Weather in Everett — Graph

°F

Everett temperature yesterday

Maximum temperature yesterday: 56 °F (at 11:53 AM)
Minimum temperature yesterday: 48 °F (at 5:53 AM)
Average temperature yesterday: 51 °F

Past Weeks' High & Low Weather Summary

 TemperatureHumidityPressure
High70 °F (Oct 13, 1:53 PM)97% (Oct 25, 2:53 AM)30.26 "Hg (Oct 25, 2:53 AM)
Low47 °F (Oct 25, 6:53 AM)35% (Oct 13, 1:53 PM)29.31 "Hg (Oct 25, 3:53 PM)
Average57 °F79%29.84 "Hg
* Reported Oct 10 3:53 PM — Oct 25 3:53 PM, Everett, Weather by CustomWeather, © 2014

Note: Actual official high and low records may vary slightly from our data, if they occured in-between our weather recording intervals... More about our weather records

Advertising

Everett weather history for previous 24 hours

 ConditionsComfort  
Time TempWeatherWind HumidityBarometerVisibility
3:53 PM
Oct 25
57 °FRain. Overcast.8 mph81%29.31 "Hg5 mi
2:53 PM57 °FLight rain. Overcast.6 mph83%29.32 "Hg6 mi
1:53 PM58 °FLight rain. Overcast.5 mph81%29.35 "Hg10 mi
12:53 PM58 °FOvercast.5 mph78%29.36 "Hg10 mi
11:53 AM58 °FOvercast.6 mph75%29.42 "Hg10 mi
10:53 AM54 °FPartly sunny.8 mph86%29.46 "Hg10 mi
9:53 AM52 °FLight rain. Overcast.3 mph86%29.52 "Hg10 mi
8:53 AM51 °FLight rain. Mostly cloudy.14 mph86%29.55 "Hg10 mi
7:53 AM49 °FFog.10 mph93%29.52 "Hg6 mi
6:53 AM47 °FPassing clouds.No wind90%29.48 "Hg10 mi
5:53 AM48 °FClear.5 mph93%29.50 "Hg10 mi
4:53 AM48 °FPassing clouds.3 mph96%29.54 "Hg10 mi
3:53 AM49 °FPassing clouds.6 mph93%29.58 "Hg9 mi
2:53 AM49 °FPartly cloudy.3 mph97%29.64 "Hg10 mi
1:53 AM50 °FLight rain. Mostly cloudy.5 mph93%29.68 "Hg10 mi
12:53 AM51 °FMostly cloudy.No wind83%29.72 "Hg10 mi
11:53 PM
Oct 24
51 °FOvercast.8 mph80%29.75 "Hg10 mi
10:53 PM50 °FLight rain. Overcast.8 mph89%29.81 "Hg8 mi
9:53 PM51 °FLight rain. Overcast.8 mph86%29.85 "Hg10 mi
8:53 PM51 °FLight rain. Overcast.No wind89%29.88 "Hg8 mi
7:53 PM52 °FMostly cloudy.3 mph80%29.87 "Hg10 mi
6:53 PM52 °FPartly sunny.5 mph80%29.88 "Hg10 mi
5:53 PM52 °FSunny.6 mph80%29.89 "Hg10 mi
Weather by CustomWeather, © 2014

See weather overviewHow to use our weather pages